CAPE
14 24 12 0 0 6 3 0 0 0 0 6 0 7 11 11 1 0 0 0 0 0 0 0 0 0 0 0 0 0 0 0 0 0 0 0 0 0 0 0 0 0 0 0
15 21 22 4 0 0 6 0 0 2 1 6 1 2 0 1 0 0 0 0 0 0 0 0 0 0 0 0 0 0 0 0 0 0 0 0 0 0 0 0 0 0 0 0
17 21 23 22 5 1 5 0 0 3 0 0 0 0 0 9 0 0 0 0 0 0 0 0 0 0 0 0 0 0 0 0 0 0 0 0 0 0 0 0 0 0 0 0
29 29 20 19 15 2 12 2 0 0 0 0 0 11 2 2 2 0 0 0 0 0 0 0 0 0 1 0 0 0 0 0 0 0 0 0 0 0 0 0 0 0 0 0
32 19 23 18 10 16 16 5 7 0 0 0 0 0 1 19 7 1 0 0 0 1 0 0 0 0 0 0 0 0 0 0 0 0 0 0 0 0 0 0 0 0 0 0
42 31 29 13 25 22 15 0 0 0 0 0 0 0 0 0 0 0 0 0 1 0 0 0 0 0 1 0 0 0 0 0 0 0 0 0 0 0 0 0 0 0 0 0
68 12 16 9 24 42 18 3 9 0 0 0 0 0 0 0 0 0 0 0 0 0 0 1 2 0 0 0 0 0 0 0 0 0 0 0 0 0 0 0 0 0 0 0
38 15 20 17 44 49 28 0 1 6 0 0 0 0 0 0 0 0 1 0 0 0 0 0 0 0 0 0 0 0 0 0 0 0 0 0 0 0 0 0 0 0 0 0
33 17 20 25 64 76 62 4 2 11 9 0 0 0 0 0 0 0 0 0 0 0 0 0 0 0 0 0 0 0 0 0 0 0 0 0 0 0 0 0 0 0 0 0
10 16 29 13 85 43 6 0 2 19 1 0 0 0 0 0 0 0 0 0 0 0 0 0 0 0 0 0 0 0 0 0 0 0 0 0 0 0 0 0 0 0 0 0
18 23 24 34 47 48 50 0 1 5 4 0 0 0 0 0 0 0 0 0 0 0 0 0 0 0 0 0 0 0 0 0 0 0 0 0 0 0 0 0 0 0 0 0
170 44 27 19 64 118 131 17 2 18 38 1 0 0 0 0 6 10 4 0 0 0 0 0 0 0 0 0 0 0 0 0 0 0 0 0 0 0 0 0 0 0 0 0
140 138 58 53 74 91 122 38 4 29 34 1 9 0 0 0 0 0 0 0 1 1 0 0 0 0 0 0 0 0 0 0 0 0 0 0 0 0 0 0 0 0 0 0
155 105 94 79 91 113 73 45 15 9 13 3 0 0 0 0 0 0 1 0 1 0 0 0 0 0 0 0 0 0 0 0 0 0 0 0 0 0 0 0 0 0 0 0
124 87 19 41 85 79 44 46 15 9 14 0 0 0 0 0 0 0 0 3 0 0 3 0 0 0 0 0 0 0 0 0 0 0 0 0 0 0 0 0 0 0 0 0
147 12 7 13 2 44 6 2 0 4 23 9 0 0 0 0 0 0 0 1 0 1 7 0 0 0 0 0 0 0 0 0 0 0 0 0 0 0 0 0 0 0 0 0
60 4 14 41 12 0 0 0 0 18 17 0 0 0 0 0 0 1 0 3 4 0 6 6 0 0 0 0 0 0 0 0 0 0 0 0 0 0 0 0 0 0 0 0
3 20 20 12 37 1 0 0 25 21 7 1 0 0 0 0 0 0 4 4 0 0 6 0 0 0 0 0 0 0 0 0 0 0 0 0 0 0 0 0 0 0 0 0
0 12 1 0 0 0 0 6 19 0 0 12 0 0 0 0 0 0 0 2 1 0 0 0 0 0 0 0 0 0 0 0 0 0 0 0 0 0 0 0 0 0 0 0
0 0 0 0 0 0 0 0 0 1 0 0 0 0 0 0 0 0 0 0 0 1 0 0 0 0 0 0 0 0 0 0 0 0 0 0 0 0 0 0 0 0 0 0
0 0 0 0 0 0 0 0 0 0 0 0 0 0 0 0 0 0 0 0 0 0 0 0 0 0 0 0 0 0 0 0 0 0 0 0 0 0 0 0 0 0 0 0
0 0 0 0 0 0 0 0 0 0 0 0 0 0 0 0 1 4 0 0 0 0 0 0 0 0 0 0 0 0 0 0 0 0 0 0 0 0 0 0 0 0 0 0
0 0 0 0 0 0 0 0 0 0 0 0 0 0 0 0 0 3 0 0 0 0 0 0 0 0 0 0 0 0 0 0 0 0 0 0 0 0 0 0 0 0 0 0
0 0 0 0 0 0 0 0 0 0 0 0 0 0 0 0 0 0 0 0 0 0 0 0 0 0 0 0 0 0 0 0 0 0 0 0 0 0 0 0 0 0 0 0
0 0 0 0 0 0 0 0 0 0 0 0 0 0 0 0 0 0 0 0 0 0 0 0 0 0 0 0 0 0 0 0 0 0 0 0 0 0 0 0 0 0 0 0
0 0 0 0 0 0 0 0 0 0 0 0 0 0 1 0 0 0 0 0 0 0 0 0 0 0 0 0 0 0 0 0 0 0 0 0 0 0 0 0 0 0 0 0
0 0 0 0 0 0 0 0 0 0 0 0 0 0 0 0 0 0 0 0 0 0 0 0 0 0 0 0 0 0 0 0 0 0 0 0 0 0 0 0 0 0 0 0
CIN
-0 -0 -1 -0 -2 -7 -0 -0 -0 -0 -0 -2 -0 -0 -7 -9 -17 -0 -0 -0 -0 -0 -0 -0 -0 -0 -0 -0 -0 -0 -0 -0 -0 -0 -0 -0 -0 -0 -0 -0 -0 -0 -0 -0
-0 -0 -0 -0 -0 -0 -5 -0 -0 -26 -0 -0 -0 -9 -13 -5 -0 -0 -0 -0 -0 -0 -0 -0 -0 -0 -0 -0 -0 -0 -0 -0 -0 -0 -0 -0 -0 -0 -0 -0 -0 -0 -0 -0
-1 -0 -0 -0 -1 -0 -0 -0 -0 -6 -0 -0 -1 -0 -0 -1 -0 -0 -0 -0 -0 -0 -0 -0 -0 -0 -0 -0 -0 -0 -0 -0 -0 -0 -0 -0 -0 -0 -0 -0 -0 -0 -0 -0
-0 -0 -1 -0 -1 -10 -3 -2 -0 -0 -0 -0 -0 -4 -3 -1 -2 -0 -0 -0 -0 -0 -0 -0 -0 -0 -0 -0 -0 -0 -0 -0 -0 -0 -0 -0 -0 -0 -0 -0 -0 -0 -0 -0
-6 -16 -1 -1 -0 -0 -4 -3 -1 -0 -0 -0 -0 -0 -0 -0 -4 -4 -0 -2 -0 -29 -0 -0 -0 -0 -0 -0 -0 -0 -0 -0 -0 -0 -0 -0 -0 -0 -0 -0 -0 -0 -0 -0
-1 -1 -1 -0 -1 -1 -1 -5 -0 -1 -0 -0 -0 -0 -0 -0 -0 -0 -0 -2 -8 -0 -0 -0 -0 -0 -0 -0 -0 -0 -0 -0 -0 -0 -0 -0 -0 -0 -0 -0 -0 -0 -0 -0
-0 -1 -1 -1 -1 -1 -9 -12 -1 -0 -0 -0 -0 -0 -0 -0 -0 -0 -9 -0 -3 -0 -0 -0 -0 -0 -0 -0 -0 -0 -0 -0 -0 -0 -0 -0 -0 -0 -0 -0 -0 -0 -0 -0
-1 -0 -1 -1 -0 -1 -12 -0 -46 -3 -0 -0 -1 -0 -0 -0 -0 -0 -0 -0 -0 -0 -0 -0 -0 -0 -0 -0 -0 -0 -0 -0 -0 -0 -0 -0 -0 -0 -0 -0 -0 -0 -0 -0
-7 -1 -0 -0 -0 -0 -2 -13 -19 -0 -2 -0 -0 -0 -0 -0 -0 -0 -0 -0 -0 -0 -0 -0 -0 -0 -0 -0 -0 -0 -0 -0 -0 -0 -0 -0 -0 -0 -0 -0 -0 -0 -0 -0
-6 -0 -0 -0 -0 -11 -5 -0 -15 -4 -0 -0 -0 -0 -0 -0 -0 -0 -0 -0 -0 -0 -0 -0 -0 -0 -0 -0 -0 -0 -0 -0 -0 -0 -0 -0 -0 -0 -0 -0 -0 -0 -0 -0
-1 -0 -0 -0 -0 -1 -3 -0 -11 -8 -0 -0 -0 -0 -0 -0 -0 -0 -0 -0 -0 -0 -0 -4 -0 -0 -0 -0 -0 -0 -0 -0 -0 -0 -0 -0 -0 -0 -0 -0 -0 -0 -0 -0
-0 -10 -1 -2 -1 -0 -2 -5 -10 -12 -0 -5 -0 -0 -0 -0 -10 -6 -5 -0 -0 -0 -0 -0 -0 -0 -0 -0 -0 -0 -0 -0 -0 -0 -0 -0 -0 -0 -0 -0 -0 -0 -0 -0
-0 -0 -1 -2 -1 -1 -1 -8 -20 -6 -1 -5 -1 -0 -0 -0 -0 -0 -0 -0 -2 -2 -0 -0 -0 -21 -0 -0 -0 -0 -0 -0 -0 -0 -0 -0 -0 -0 -0 -0 -0 -0 -0 -0
-1 -1 -1 -1 -0 -0 -1 -3 -10 -12 -2 -2 -0 -0 -0 -0 -0 -0 -18 -0 -1 -0 -3 -0 -0 -0 -0 -0 -0 -0 -0 -0 -0 -0 -0 -0 -0 -0 -0 -0 -0 -0 -0 -0
-1 -1 -0 -2 -0 -0 -2 -5 -9 -18 -3 -0 -0 -0 -0 -0 -0 -0 -0 -0 -0 -0 -1 -0 -0 -0 -0 -0 -0 -0 -0 -0 -0 -0 -0 -0 -0 -0 -0 -0 -0 -0 -0 -0
-1 -2 -0 -19 -3 -6 -6 -10 -1 -21 -9 -2 -0 -0 -0 -0 -0 -0 -0 -0 -0 -0 -1 -2 -0 -0 -0 -0 -0 -0 -0 -0 -0 -0 -0 -0 -0 -0 -0 -0 -0 -0 -0 -0
-2 -5 -2 -13 -13 -0 -0 -0 -0 -51 -4 -0 -0 -0 -0 -0 -0 -0 -0 -11 -5 -0 -0 -1 -0 -0 -0 -0 -0 -0 -0 -0 -0 -0 -0 -0 -0 -0 -0 -0 -0 -0 -0 -0
-2 -4 -9 -13 -17 -0 -0 -0 -2 -8 -44 -1 -0 -0 -0 -0 -0 -20 -37 -1 -0 -0 -0 -0 -9 -0 -0 -0 -0 -0 -0 -0 -0 -0 -0 -0 -0 -0 -0 -0 -0 -0 -0 -0
-0 -2 -0 -0 -0 -0 -0 -18 -2 -11 -0 -19 -0 -0 -0 -0 -0 -0 -0 -0 -4 -0 -0 -4 -0 -0 -0 -0 -0 -0 -0 -0 -0 -0 -0 -0 -0 -0 -0 -0 -0 -0 -0 -0
-1 -0 -0 -0 -0 -0 -0 -0 -0 -9 -1 -0 -0 -0 -0 -0 -0 -0 -0 -0 -0 -9 -0 -0 -0 -0 -0 -0 -0 -0 -0 -0 -0 -0 -0 -0 -0 -0 -0 -0 -0 -0 -0 -0
-0 -0 -0 -0 -0 -0 -0 -0 -1 -0 -0 -0 -0 -0 -0 -0 -10 -0 -0 -0 -0 -0 -0 -0 -0 -0 -0 -0 -0 -0 -0 -0 -0 -0 -0 -0 -0 -0 -0 -0 -0 -0 -0 -0
-0 -0 -0 -0 -0 -0 -0 -0 -0 -0 -0 -0 -0 -0 -0 -0 -19 -5 -0 -0 -0 -0 -0 -0 -0 -0 -0 -0 -0 -0 -0 -0 -0 -0 -0 -0 -0 -0 -0 -0 -0 -0 -0 -0
-0 -0 -0 -0 -0 -0 -0 -0 -0 -0 -0 -0 -0 -0 -0 -0 -0 -5 -0 -0 -0 -0 -0 -0 -0 -0 -0 -0 -0 -0 -0 -0 -0 -0 -0 -0 -0 -0 -0 -0 -0 -0 -0 -0
-0 -0 -0 -0 -0 -0 -0 -0 -0 -0 -0 -0 -0 -0 -0 -0 -0 -0 -0 -0 -0 -0 -0 -0 -0 -0 -0 -0 -0 -0 -0 -0 -0 -0 -0 -0 -0 -0 -0 -0 -0 -0 -0 -0
-0 -0 -0 -0 -0 -0 -0 -0 -0 -0 -0 -0 -0 -0 -0 -0 -0 -0 -0 -0 -0 -0 -0 -0 -0 -0 -0 -0 -0 -0 -0 -0 -0 -0 -0 -0 -0 -0 -0 -0 -0 -0 -0 -0
-0 -0 -0 -0 -0 -0 -0 -0 -0 -0 -0 -0 -3 -0 -12 -0 -0 -0 -0 -0 -0 -0 -0 -0 -0 -0 -0 -0 -0 -0 -0 -0 -0 -0 -0 -0 -0 -0 -0 -0 -0 -0 -0 -0
-0 -0 -0 -0 -0 -0 -0 -0 -0 -0 -0 -0 -0 -0 -0 -0 -0 -0 -0 -0 -0 -0 -0 -0 -0 -0 -0 -0 -0 -0 -0 -0 -0 -0 -0 -0 -0 -0 -0 -0 -0 -0 -0 -0
Wind_Speed
40 40 40 39 41 41 35 31 35 24 16 26 30 37 33 31 29 28 29 26 26 27 25 28 30 31 27 22 22 22 21 20 23 23 20 18 18 17 15 22 24 22 25 31
41 41 39 39 40 36 34 35 36 27 24 37 38 36 38 35 32 33 31 31 29 28 29 30 27 26 24 23 23 22 19 23 24 24 24 22 21 19 17 18 20 22 25 26
42 43 41 39 38 36 35 34 40 31 31 36 38 39 45 39 34 38 32 31 27 28 30 27 27 27 22 22 23 23 21 24 25 29 25 17 22 18 15 17 22 24 16 25
40 41 40 40 38 35 30 32 39 35 38 39 47 40 39 44 45 34 31 34 34 30 32 28 30 27 23 22 24 24 25 30 30 31 28 25 25 21 13 14 17 18 19 20
39 38 38 37 35 33 35 39 37 33 42 44 44 43 54 49 45 42 41 42 34 36 34 31 31 27 27 25 22 24 27 33 28 32 29 29 34 29 17 17 21 17 19 29
38 39 41 39 36 33 37 32 33 37 46 45 49 46 36 44 47 41 42 40 39 42 37 29 27 25 25 22 20 20 24 28 31 37 29 31 42 21 16 18 19 17 16 13
36 39 40 43 37 31 30 32 34 39 52 43 49 50 46 43 40 45 42 38 39 31 17 19 20 21 22 20 20 18 21 23 24 28 24 38 30 20 17 11 12 11 13 13
35 34 38 36 27 26 25 24 30 35 46 45 45 49 55 51 48 49 51 39 29 19 23 29 30 30 29 28 26 22 22 21 26 31 30 34 34 21 17 18 24 8 9 7
37 33 30 29 19 20 31 26 25 32 40 44 45 47 48 53 51 48 43 34 26 25 30 31 38 41 36 32 28 24 21 21 23 23 29 30 21 17 15 16 26 15 4 8
31 28 23 20 12 29 36 31 25 34 43 44 37 42 44 42 42 41 36 31 31 32 37 39 40 42 30 35 31 27 26 27 28 28 31 31 26 18 15 23 20 13 8 12
26 24 19 15 8 32 32 33 24 34 43 44 37 41 42 36 40 43 34 32 34 37 41 43 38 39 37 35 29 29 26 24 26 24 29 35 13 12 18 17 18 14 12 13
26 18 15 14 13 23 38 38 28 26 39 41 35 40 42 39 37 37 35 38 30 33 36 36 32 35 32 33 39 29 31 26 24 20 21 19 11 15 10 15 19 19 18 21
30 18 18 17 19 38 50 42 29 25 40 46 41 43 44 35 37 37 46 40 34 34 28 33 34 37 30 34 38 29 32 25 30 24 27 30 24 21 24 21 21 23 24 21
30 19 22 20 22 42 46 47 30 23 34 39 36 27 37 29 34 38 42 43 37 35 33 38 39 39 34 36 32 32 28 22 30 35 35 30 28 24 22 23 24 26 26 25
29 23 20 30 26 26 40 37 27 21 34 29 30 28 35 33 36 39 39 43 42 40 37 36 40 36 34 33 32 36 28 28 30 32 27 22 22 22 24 26 26 28 30 33
28 21 12 29 15 19 16 22 24 18 26 35 41 30 30 31 34 38 37 40 39 38 38 36 33 29 34 39 48 37 31 31 32 35 30 30 33 35 33 35 35 35 31 31
18 14 29 25 15 10 10 10 18 10 16 31 31 37 32 32 34 36 38 40 36 36 37 40 37 35 35 41 48 31 30 34 37 36 36 43 37 39 35 37 39 35 35 39
13 8 26 26 19 7 16 25 8 6 11 26 33 35 35 31 36 36 33 36 37 36 37 33 35 32 36 47 42 39 37 38 38 39 39 48 43 41 42 40 41 43 42 44
10 12 19 23 22 21 16 17 3 10 21 26 27 37 42 32 38 36 32 31 38 29 37 39 34 39 45 41 36 36 38 39 41 37 38 40 42 44 44 44 42 46 45 45
5 12 14 22 21 19 19 17 11 0 12 17 43 33 36 31 33 37 32 28 34 37 37 27 40 45 41 36 33 32 36 32 31 37 41 40 45 45 45 44 44 44 45 45
11 9 15 20 20 20 22 22 21 16 15 13 26 40 36 34 35 37 35 31 23 33 29 32 34 40 41 40 41 44 34 34 37 40 43 39 40 42 45 45 41 40 40 42
12 13 16 19 20 20 20 20 19 19 23 19 30 33 35 33 31 34 31 33 29 32 24 31 38 37 34 29 34 39 32 34 37 35 38 38 39 38 38 38 37 37 37 38
9 17 18 18 20 20 17 17 16 18 20 25 28 27 28 25 31 32 26 32 31 22 29 36 36 28 26 25 26 25 24 24 27 29 29 29 29 30 31 34 34 35 36 36
13 17 20 20 20 20 17 14 13 16 23 26 36 36 30 25 25 24 26 25 25 27 28 31 24 25 22 21 21 21 22 22 23 22 24 25 27 29 31 32 33 35 37 36
16 17 19 21 21 20 17 12 11 12 16 27 31 28 29 29 24 16 17 25 33 31 26 20 20 21 19 18 17 17 19 19 20 21 23 24 26 28 29 30 31 32 33 33
21 21 22 22 21 19 15 11 7 7 7 20 25 25 25 26 24 15 19 22 29 31 24 22 20 18 17 16 16 15 16 17 19 20 21 22 24 25 26 26 28 29 29 29
25 26 26 27 27 24 18 14 9 10 9 13 18 16 18 22 19 12 9 13 15 20 19 17 16 16 15 15 14 14 14 16 18 19 21 22 22 22 23 25 27 27 27 27
Wind_Direction
318 317 317 317 311 308 311 301 289 304 291 269 268 264 267 271 270 269 272 275 277 276 277 279 272 273 274 283 272 273 267 279 275 279 288 290 288 289 291 293 298 305 309 309
314 313 315 315 315 306 306 292 288 292 283 269 264 269 267 268 268 265 268 268 272 274 272 274 272 276 284 281 274 266 267 270 271 276 281 284 282 283 290 299 304 299 304 312
314 311 310 309 310 310 300 290 282 285 271 269 269 266 263 265 268 265 267 267 271 267 266 272 274 275 289 287 273 270 268 267 267 269 279 287 281 282 282 289 295 299 294 309
315 313 311 307 305 309 296 290 280 275 273 269 264 266 267 261 259 265 263 263 259 261 266 269 270 278 285 290 274 268 267 266 268 269 274 281 285 288 281 274 287 292 301 306
314 313 313 310 306 303 290 280 279 284 270 267 270 268 258 261 261 257 259 258 259 258 262 266 270 275 276 281 277 268 266 262 270 269 275 278 278 282 283 280 292 272 291 250
312 310 309 305 300 293 286 282 278 277 273 265 261 261 267 263 260 261 256 257 257 257 260 269 277 278 279 280 277 270 270 266 266 265 275 278 272 279 267 286 291 288 285 257
311 311 310 305 295 283 281 278 279 273 267 266 259 258 261 264 265 263 262 258 252 260 263 269 276 277 273 273 274 276 273 270 267 269 276 266 283 304 304 283 291 258 285 238
308 311 314 315 301 286 274 281 273 270 266 266 265 261 256 259 264 267 259 252 258 243 253 257 260 262 264 265 269 269 272 272 271 265 268 277 281 300 306 303 306 279 249 259
302 310 318 324 316 286 271 279 278 269 269 266 264 262 259 254 256 264 261 253 243 244 254 250 249 251 256 261 264 267 269 271 269 274 270 275 294 310 322 326 307 333 9 350
306 310 318 326 321 280 269 277 277 271 270 268 268 260 256 255 252 255 268 247 243 245 241 247 251 250 257 255 256 257 257 263 261 266 270 280 290 304 314 302 310 336 357 350
305 310 313 313 296 279 275 279 281 271 267 268 267 261 252 256 246 246 257 253 244 245 244 246 249 252 250 254 257 256 252 256 262 266 270 278 299 310 298 313 322 322 333 341
299 298 294 293 282 291 277 279 280 276 266 265 271 263 254 256 249 250 252 248 261 248 241 245 249 251 251 249 250 252 252 256 264 260 278 293 299 310 313 324 322 319 319 325
294 293 299 291 288 256 260 271 276 276 264 260 264 258 250 260 251 249 246 250 256 254 259 247 249 250 247 247 249 254 256 260 265 271 277 279 289 298 299 304 311 315 313 320
292 300 307 306 300 282 269 262 263 260 264 257 262 271 255 263 248 245 244 249 253 259 262 251 245 245 247 251 256 254 259 256 261 266 272 284 287 299 307 310 309 309 315 317
289 306 317 283 241 239 272 267 253 248 249 255 258 274 260 258 249 246 248 244 247 250 254 249 242 245 247 253 255 254 255 260 261 268 279 282 292 305 310 309 310 312 313 308
286 309 323 250 227 231 317 269 257 250 251 251 254 272 265 254 248 245 246 241 240 246 247 249 249 248 245 249 249 256 257 260 263 267 276 280 286 290 298 294 297 304 311 306
289 311 259 238 350 358 109 302 280 216 243 249 259 254 259 254 247 246 241 236 238 245 246 245 249 247 248 249 247 255 256 260 262 269 276 270 281 286 298 294 292 301 299 289
286 321 265 262 238 39 273 206 352 83 258 254 255 249 251 250 242 240 241 236 238 245 244 247 246 247 247 246 250 254 259 263 266 269 274 263 280 282 281 286 285 280 269 283
288 310 283 279 273 267 295 292 328 299 273 263 253 241 242 248 241 238 243 236 232 244 242 241 244 243 242 245 252 256 260 264 265 271 273 272 273 275 280 283 287 280 272 281
350 319 315 269 270 292 301 305 315 257 290 275 238 250 242 235 233 228 230 233 233 236 240 246 241 243 247 250 253 259 265 269 272 270 272 277 273 275 278 284 287 287 281 284
335 349 288 267 283 288 267 216 197 174 180 180 228 235 231 228 224 225 229 228 230 230 237 238 242 244 248 251 257 259 268 270 272 272 273 282 282 282 283 284 289 291 292 291
49 286 273 260 238 225 216 218 207 194 209 194 205 224 220 222 223 222 225 223 234 236 240 241 243 250 256 257 259 259 269 269 271 278 277 281 283 287 289 292 295 298 299 300
359 226 214 215 209 203 192 216 211 225 242 226 206 211 210 220 219 224 231 225 231 242 244 245 249 255 257 262 268 272 278 279 285 286 289 291 292 296 298 298 301 303 305 307
227 218 218 211 204 191 209 230 247 249 226 212 192 189 193 204 214 237 234 234 229 233 242 239 247 249 262 273 278 277 278 286 291 293 298 300 301 301 302 304 306 306 306 308
245 233 222 221 223 238 240 240 263 274 221 194 190 196 195 205 224 245 233 224 223 225 234 246 260 265 273 281 284 288 290 295 296 302 305 307 309 309 310 313 313 314 314 314
262 243 233 237 235 236 255 267 258 238 218 194 198 198 205 210 201 237 233 224 224 225 245 261 268 269 280 285 290 296 299 304 305 310 313 314 317 319 321 325 327 328 328 327
258 246 243 238 239 238 248 241 243 254 234 206 202 215 219 207 219 241 244 228 219 233 245 256 256 263 274 286 294 303 309 315 318 321 326 328 328 330 332 332 333 335 337 337